STARLINK-4768, 53806

Orbit data source: Space-Track

STARLINK-4768, 53806 is a payload satellite owned by SpaceX/Seattle (US) in LEO that was launched on Sun, 11 Sep 2022 UTC via an FALCON 9 launch vehicle from the Air Force Eastern Test Range (AFETR). Payload-class satellites include a variety of spacecraft equipped with specific instruments for various scientific and technological missions. These include communications satellites like Starlink; space stations such as the ISS; scientific satellites like the Hubble; Earth observation satellites from companies like Planet Labs, Umbra, and HawkEye 360; GPS; miniature CubeSats for education and research; and military/defense satellites.

Loading next visibility...
Identifier
53806, 2022-111AK
Orbit
LEO
Last TLE update
7 hours ago
Origin
Manufacturer
SpaceX/Seattle
Mission
Operational Commercial Communications
Bus & Motor
STARLINK, Unknown motor
Mass
305 kg wet, ~290 kg dry
Launch date (UTC)
2022-09-11 (3 years ago)
Launch vehicle
FALCON 9
Launch site
Air Force Eastern Test Range (AFETR)
Object type
Payload
Rocket body
Debris
Shape & HBR
Box + 1 Pan, 8.86 m
Radar Cross Section
13.562 m², Large (>1 m²)

Expand to show TLE details & history

TLE from 7 hours ago
0 STARLINK-4768
1 53806U 22111AK  25115.50380880  .00000627  00000-0  57487-4 0  9995
2 53806  53.2157 237.3529 0001236 105.2498 254.8631 15.08833864145183
Epoch: 2025-04-25T12:05Z
Definitive object data (Epoch: 2025-04-25T12:05:29.08Z)
Latitude
-0°
Longitude
-157.77821°
Altitude
540.883 km
Speed
7.593 km/s
True Right ascension
15h 49m 24s
True Declination
0° 00' 00"
Sunlit
Object was in full shadow at TLE epoch
Visualization TLE readout
Latitude
-51.07864°
Longitude
87.86763°
Altitude
558.191 km
Speed
7.582 km/s
Apparent Right ascension
11h 46m 51s
Apparent Declination
-57° 36' 34"
Sunlit
Object is in daylight
Visualization observer readout
Local Sidereal Time
02:50:33
Azimuth
136.711° SSE
Elevation
-55.856°
Doppler factor
1
Orbital elements
Apogee altitude
540.862 km
Perigee altitude
539.152 km
Semi-major axis
6,918.144 km
Eccentricity
0.0001236
Inclination
53.2157°
RAAN
237.3529°
Arg. of periapsis
105.2498°
True anomaly
254.84943°
Mean anomaly
254.8631°
Eccentric anomaly
254.85626°
Mean motion
3.77189 °/min
BSTAR
0.000057487
Orbital period
95.44 mins
Loading maneuver chart data...
Loading SW <> Apogee altitude chart data...
Loading historical data...
Loading historical data...
Loading historical data...
Loading historical data...
Loading historical data...
Loading historical data...
Loading historical data...

STARLINK-4768 Visibility forecast

Observer location: undefined°, undefined°

Span
Click to sort rows by Start time (UTC) header in descending order
Start Az.
Max El. time (UTC)
Max El. Az.
Max El.
End time (UTC)
End Az.
7 mins2025-04-26 10:30:45.397Z218.985° SW2025-04-26 10:34:45.397Z101.256° ESE41.894°2025-04-26 10:37:45.397Z55.684° ENE
5 mins2025-04-26 12:11:45.397Z290.649° WNW2025-04-26 12:13:45.397Z327.946° NNW21.845°2025-04-26 12:16:45.397Z24.334° NE
4 mins2025-04-26 15:33:45.397Z350.888° N2025-04-26 15:35:45.397Z27.128° NE16.557°2025-04-26 15:37:45.397Z58.248° ENE
6 mins2025-04-26 17:12:45.397Z320.259° NNW2025-04-26 17:15:45.397Z76.958° E40.193°2025-04-26 17:18:45.397Z118.563° SE
4 mins2025-04-26 18:52:45.397Z259.005° W2025-04-26 18:53:45.397Z241.938° WSW16.1°2025-04-26 18:56:45.397Z193.302° SSW
|